Regional Weather Roundup
Issued by NWS Charleston, SC

Current Version | Previous Version | Text Only | Print | Product List | Glossary Off
Versions: 1 2 3 4 5 6 7 8 9 10 11 12 13 14 15 16 17 18 19 20 21 22 23 24 25 26 27 28 29 30 31 32 33 34 35 36 37 38 39 40 41 42 43 44 45 46 47 48 49 50

000
ASUS42 KCHS 240727
RWRCHS

Regional Weather Roundup
National Weather Service Charleston SC
300 AM EDT TUE APR 24 2018

NOTE: "fair" indicates few or no clouds below 12,000 feet with no
significant weather and/or obstructions to visibility.

Not all stations are quality controlled. Use data with caution,
especially dewpoint observations.

SCZ027-030-031-034>040-042>050-240800-
...Southeast South Carolina...

CITY           SKY/WX    TMP DP  RH WIND       PRES   REMARKS
N Charleston   LGT RAIN  68  66  93 E3        29.88S FOG
Waterfront Prk   N/A     67  66  96 S5        29.74F
Mount Pleasant CLOUDY    64  64 100 E7        29.89F FOG
Johns Island   CLOUDY    68  66  94 CALM      29.88F FOG
Pinopolis      NOT AVBL
Moncks Corner  CLOUDY    64  63  94 CALM      29.89F
Summerville    CLOUDY    64  64 100 CALM      29.89F
Beaufort MCAS  CLOUDY    68  67  96 VRB5      29.86F
Beaufort Arpt  CLOUDY    66  64  94 SW7       29.86F
Hilton Head Is CLOUDY    66  66 100 S9G15     29.87F
Walterboro     CLOUDY    66  64  94 SE7       29.88F
Allendale      CLOUDY    68  68 100 S6        29.85F

...Southern Midlands and Pee Dee...

CITY           SKY/WX    TMP DP  RH WIND       PRES   REMARKS
Georgetown     LGT RAIN  63  63 100 E28G38    29.90F
Kingstree      LGT RAIN  63  61  94 E9        29.92F
Orangeburg     CLOUDY    65  63  93 E7        29.88F
Barnwell       CLOUDY    66  64  94 CALM      29.87F
Aiken          LGT RAIN  63  63 100 E6        29.90F
Manning        CLOUDY    59  59 100 E6        29.90F FOG
Columbia       LGT RAIN  64  64 100 E8        29.89R
Sumter         CLOUDY    64  63  94 E8        29.89F
Florence       LGT RAIN  64  62  93 E13G23    29.95F FOG
Myrtle Beach   LGT RAIN  64  62  93 E23G30    29.96F
N Myrtle Beach LGT RAIN  64  62  93 E14G28    29.97F FOG

$$

GAZ063-065-086>088-099>101-113>116-118-119-134>141-150-240800-
...Southeast Georgia...

CITY           SKY/WX    TMP DP  RH WIND       PRES   REMARKS
Savannah Arpt  MOCLDY    67  66  97 SW5       29.87F
Hunter AAF     MOCLDY    66  64  94 S3        29.84
Fort Stewart   CLOUDY    68  66  95 S5        29.85F
Statesboro     CLOUDY    69  32  25 S5        29.85F
Sylvania       PTSUNNY   68  68 100 CALM      29.86F
Claxton        CLOUDY    70  68  92 S3        29.86F

...CSRA, Central and far Southeast Georgia...

CITY           SKY/WX    TMP DP  RH WIND       PRES   REMARKS
Thomson        CLOUDY    63  62  95 S5        29.90S
Augusta-Bush   CLOUDY    65  64  97 E7        29.84F
Augusta-Daniel CLOUDY    66  64  93 SE7       29.86F
Swainsboro     CLOUDY    64  64 100 CALM      29.86F
Vidalia        FAIR      64  64 100 SW5       29.86F
Eastman        FAIR      61  49  65 SW3       29.89F
Hazlehurst     FAIR      66  62  85 CALM      29.86F
Alma           FAIR      66  63  90 SW6       29.87F
Waycross       FAIR      64  62  90 SW8       29.89S
Jesup          FAIR      66  63  88 CALM      29.88S
Baxley         FAIR      63  63 100 CALM      29.87F
Brunswick      FAIR      66  63  88 SW9       29.88F
Saint Simons   FAIR      68  67  96 SW6       29.88F

$$

SCZ027-028-034-036>038-045-046-048>050-GAZ119-141-240800-
...Lake and Supplemental Coastal Observations...

STATION/POSITION TIME  TEMP    WIND        PRES    WAVE   SWELL
                       AIR SEA DIR/SP/G            HT/PER HT/PER/DIR
                 (UTC) (F)     (DEG/KT/KT) (MB)    (FT/S) (FT/S/D)
Winyah Bay       0645   65     110/ 24     1013.0F
Lake Murray      0620   62      80/ 14/ 16 1011.9
ACE Basin NERRS  0645   67        CALM       N/A
Fort Pulaski     0700   67 65  220/  5/  7 1011.7
Sapelo Island    0700   66     190/  6     1011.0

$$

ANZ835-935-AMZ111-154-330-350-352-354-370-450-454-472-240800-
...C-MAN and Buoy Observations...

STATION/POSITION TIME  TEMP    WIND        PRES    WAVE   SWELL
                       AIR SEA DIR/SP/G            HT/PER HT/PER/DIR
                 (UTC) (F)     (DEG/KT/KT) (MB)    (FT/S) (FT/S/D)
Buoy 41004       0710      68  150/ 17/ 29 1012.1
Buoy 41008       0650   67 65  180/ 10/ 12 1011.3F   6/ 9   7/ 70/ 9
Folly Beach CMAN 0700   66     160/  5/  5 1012.3F
Capers Nearshore 0708   65     120/ 12/ 21 1010.3F
Fripp Nearshore  0708   66 64  180/  8/ 14 1011.0F


STATION/POSITION TIME  TEMP    WIND        PRES    WAVE   SWELL
                       AIR SEA DIR/SP/G            HT/PER HT/PER/DIR
                 (UTC) (F)     (DEG/KT/KT) (MB)    (FT/S) (FT/S/D)
5E St. Marys GA  0700      67                N/A     5/ 8   2/ 80/11
Frying Pan Buoy  0710   67 69  120/ 29/ 37 1015.9
Buoy 41025       0710   69 72  120/ 25/ 31 1022.0
Cape Lookout NC  0700          130/ 19/ 21 1020.1F
Buoy 41002       0710   68 72  120/ 23/ 29 1020.0
Buoy 41010       0710   70 74  170/ 10/ 14 1014.0
St Augustine FL  0700   70 68  260/  7/ 10 1012.8F


$$




USA.gov is the U.S. government's official web portal to all federal, state and local government web resources and services.